Location: Ballingbuur
(53.0000°N, 5.7667°E)
Time: 06:21:36
(UTC+00:00)

Envisat - Pass Details

Date: 29 November 2020
Orbit: 764 x 766 km, 98.1° (Epoch: 23 January)

Event Time Altitude Azimuth Distance (km) Brightness Sun altitude
Rises 06:29:36 0° 11° (N) 3,249 6.1 -8.0°
Reaches altitude 10° 06:31:59 10° 5° (N) 2,318 5.3 -7.6°
Maximum altitude 06:36:50 46° 294° (WNW) 1,030 3.3 -7.0°
Drops below altitude 10° 06:41:39 10° 222° (SW) 2,302 5.3 -6.3°
Sets 06:44:01 0° 217° (SW) 3,224 6.1 -6.0°
